Estación de Casa Rosada

Ultimos registro cada 15 minutos 73
Estación Fecha / Hora Temperatura Humedad Lluvia Velocidad Dirección Radiación Presion
73 Casa Rosada 06-09-2026 18:00 24,6 17 0 0,9 293 16 1005,5
72 Casa Rosada 06-09-2026 17:45 24,6 17 0 0,9 293 16 1005,5
71 Casa Rosada 06-09-2026 17:30 25,6 17 0 2,7 314 19 1005,5
70 Casa Rosada 06-09-2026 17:15 26,7 17 0 1,3 356 176 1005,5
69 Casa Rosada 06-09-2026 17:00 27,3 16 0 3,6 325 295 1005,5
68 Casa Rosada 06-09-2026 16:45 27,3 16 0 3,6 325 295 1005,5
67 Casa Rosada 06-09-2026 16:30 27,9 14 0 2,2 311 343 1005,3
66 Casa Rosada 06-09-2026 16:15 28,1 12 0 1,8 314 396 1005,1
65 Casa Rosada 06-09-2026 16:00 28,3 10 0 2,7 306 492 1005
64 Casa Rosada 06-09-2026 15:45 28,3 10 0 2,7 306 492 1005
63 Casa Rosada 06-09-2026 15:30 28,5 10 0 4,9 338 536 1004,9
62 Casa Rosada 06-09-2026 15:15 28,7 11 0 4 350 578 1004,9
61 Casa Rosada 06-09-2026 15:00 29,1 11 0 1,8 299 652 1005
60 Casa Rosada 06-09-2026 14:45 29,1 11 0 1,8 299 652 1005
59 Casa Rosada 06-09-2026 14:30 29,1 13 0 2,2 316 686 1005,1
58 Casa Rosada 06-09-2026 14:15 29,3 12 0 2,7 333 714 1005,3
57 Casa Rosada 06-09-2026 14:00 29,2 11 0 3,6 1 763 1005,6
56 Casa Rosada 06-09-2026 13:45 29,2 11 0 3,6 1 763 1005,6
55 Casa Rosada 06-09-2026 13:30 29,2 9 0 2,7 340 779 1005,9
54 Casa Rosada 06-09-2026 13:15 29,4 10 0 3,1 330 789 1006
53 Casa Rosada 06-09-2026 13:00 29,1 12 0 1,8 331 803 1006,3
52 Casa Rosada 06-09-2026 12:45 29,1 12 0 1,8 331 803 1006,3
51 Casa Rosada 06-09-2026 12:30 29,1 10 0 3,1 322 803 1006,4
50 Casa Rosada 06-09-2026 12:15 28,6 11 0 3,6 311 802 1006,4
49 Casa Rosada 06-09-2026 12:00 28,4 11 0 1,3 343 780 1006,7
48 Casa Rosada 06-09-2026 11:45 28,4 11 0 1,3 343 780 1006,7
47 Casa Rosada 06-09-2026 11:30 28 12 0 2,2 37 765 1006,9
46 Casa Rosada 06-09-2026 11:15 27,4 12 0 0,9 20 745 1007,2
45 Casa Rosada 06-09-2026 11:00 26,7 13 0 1,3 177 693 1007,7
44 Casa Rosada 06-09-2026 10:45 26,7 13 0 1,3 177 693 1007,7
43 Casa Rosada 06-09-2026 10:30 26,1 13 0 0,9 151 661 1008
42 Casa Rosada 06-09-2026 10:15 25,6 13 0 1,8 85 628 1008,5
41 Casa Rosada 06-09-2026 10:00 24,1 17 0 0,9 148 547 1009,6
40 Casa Rosada 06-09-2026 09:45 24,1 17 0 0,9 148 547 1009,6
39 Casa Rosada 06-09-2026 09:30 23 19 0 0,9 157 506 1010
38 Casa Rosada 06-09-2026 09:15 20,4 26 0 0,4 177 457 1010,7
37 Casa Rosada 06-09-2026 09:00 14,2 48 0 0,4 34 357 1010,8
36 Casa Rosada 06-09-2026 08:45 14,2 48 0 0,4 34 357 1010,8
35 Casa Rosada 06-09-2026 08:30 10,4 63 0 0 190 309 1010,5
34 Casa Rosada 06-09-2026 08:15 9,9 62 0 0,4 135 21 1010,4
33 Casa Rosada 06-09-2026 08:00 8,7 66 0 0,9 155 18 1010,2
32 Casa Rosada 06-09-2026 07:45 8,7 66 0 0,9 155 18 1010,2
31 Casa Rosada 06-09-2026 07:30 8,6 66 0 0,4 177 16 1010
30 Casa Rosada 06-09-2026 07:15 8,9 65 0 0 156 12 1010
29 Casa Rosada 06-09-2026 07:00 8,9 66 0 0,9 177 0 1009,6
28 Casa Rosada 06-09-2026 06:45 8,9 66 0 0,9 177 0 1009,6
27 Casa Rosada 06-09-2026 06:30 9,3 66 0 0,9 167 0 1009,4
26 Casa Rosada 06-09-2026 06:15 9,8 65 0 0,9 158 0 1009,3
25 Casa Rosada 06-09-2026 06:00 9,8 66 0 0 167 0 1009,2
24 Casa Rosada 06-09-2026 05:45 9,8 66 0 0 167 0 1009,2
23 Casa Rosada 06-09-2026 05:30 10,1 65 0 0,9 162 0 1009,1
22 Casa Rosada 06-09-2026 05:15 10,2 65 0 0,9 177 0 1008,9
21 Casa Rosada 06-09-2026 05:00 10,4 65 0 0,4 167 0 1008,7
20 Casa Rosada 06-09-2026 04:45 10,4 65 0 0,4 167 0 1008,7
19 Casa Rosada 06-09-2026 04:30 10,6 65 0 0,4 167 0 1008,7
18 Casa Rosada 06-09-2026 04:15 10,9 65 0 0,4 183 0 1008,6
17 Casa Rosada 06-09-2026 04:00 11,2 65 0 1,3 167 0 1008,6
16 Casa Rosada 06-09-2026 03:45 11,2 65 0 1,3 167 0 1008,6
15 Casa Rosada 06-09-2026 03:30 11,6 64 0 0,9 181 0 1008,6
14 Casa Rosada 06-09-2026 03:15 11,6 64 0 0,9 167 0 1008,5
13 Casa Rosada 06-09-2026 03:00 11,6 65 0 0,9 177 0 1008,5
12 Casa Rosada 06-09-2026 02:45 11,6 65 0 0,9 177 0 1008,5
11 Casa Rosada 06-09-2026 02:30 12,1 64 0 0,4 167 0 1008,6
10 Casa Rosada 06-09-2026 02:15 12,4 63 0 0 158 0 1008,7
9 Casa Rosada 06-09-2026 02:00 13,3 62 0 0,9 172 0 1008,6
8 Casa Rosada 06-09-2026 01:45 13,3 62 0 0,9 172 0 1008,6
7 Casa Rosada 06-09-2026 01:30 13,4 62 0 0,9 172 0 1008,5
6 Casa Rosada 06-09-2026 01:15 13,6 62 0 0,9 167 0 1008,4
5 Casa Rosada 06-09-2026 01:00 15,9 57 0 0 141 0 1008,4
4 Casa Rosada 06-09-2026 00:45 15,9 57 0 0 141 0 1008,4
3 Casa Rosada 06-09-2026 00:30 16,6 55 0 0,4 137 0 1008,4
2 Casa Rosada 06-09-2026 00:15 16,8 54 0 0,4 149 0 1008,3
1 Casa Rosada 06-09-2026 00:00 18,6 49 0 0 27 0 1008,3